Tracking 30058 objects as of 9-Dec-2024
HD Live streaming from Space Station
objects crossing your sky now

USA 58

Track USA 58 now!
10-day predictions
USA 58 is classified as:


NORAD ID: 20562
Int'l Code: 1990-031C
Perigee: 605.6 km
Apogee: 699.4 km
Inclination: 89.9 °
Period: 97.6 minutes
Semi major axis: 7023 km
RCS: Unknown
Launch date: April 11, 1990
Source: United States (US)
Launch site: AIR FORCE WESTERN TEST RANGE (AFWTR)
Your satellite tracking list
Your tracking list is empty




NASA's NSSDC Master Catalog

Two Line Element Set (TLE):
1 20562U 90031C   24344.31583372  .00002308  00000-0  32910-3 0  9998
2 20562  89.8500 273.5584 0066784 116.2652 244.5452 14.74944553 31810
Source of the keplerian elements: McCants